Herzlich willkommen!

Am freundlichen Bodensee-Flugplatz zwischen Schwarzwald, Rhein und Alpen.

Aktuelles

Bitte beachten Sie aus gegebenem Anlass auch unseren aktuellen Pilotenhinweis!

Es liegen keine aktuellen Meldungen vor. Wir freuen uns auf Ihren Besuch!

Live am Platz

Die Bilder unserer Webcams werden alle 5 Minuten aktualisiert.

Sonnenaufgang:

05:20 UTC / 07:20 Lokal

Sonnenuntergang:

17:06 UTC / 19:06 Lokal

METAR (30.09.2020 19:20 UTC):

EDNY 301720Z 06002KT CAVOK 15/12 Q1012
VFR

TAF (30.09.2020 13:00 UTC):

TAF EDNY 301100Z 3012/0112 VRB03KT CAVOK BECMG 3023/0101 3500 BR BKN012 BECMG 0101/0103 2000 BKN005 PROB30 TEMPO 0103/0107 0600 FG BECMG 0107/0109 9999 SCT012

Alle Angaben unverbindlich und ohne Gewähr. Zeiten genähert.

Für den Verkehrslandeplatz Konstanz werden keine offiziellen Wetterinformationen ausgegeben. Daher werden zur Orientierung Daten des nahegelegenen Flughafens Friedrichshafen dargestellt.